Moline, IL
on Sunday, October 14, 2012

Sunday
Previous Day Next Day
Daily Summary
 ActualAverageRecord
Temperature
Mean Temperature °F 54°F  
Max Temperature 63°F 65°F 87°F (1947)
Min Temperature 41°F 43°F 26°F (1939)
Degree Days
Heating Degree Days 13 11  
Month to date heating degree days 203 133  
Since 1 July heating degree days 350 237  
Cooling Degree Days 0 0  
Month to date cooling degree days 0 11  
Year to date cooling degree days 1200 1000  
Growing Degree Days4 (Base °F )  
Moisture
Dew Point 56°F   
Average Humidity 89    
Maximum Humidity 100    
Minimum Humidity 77    
Precipitation
Precipitation 0.84 in 0.10 in 2.27 in (1886)
Month to date precipitation 1.91 1.32  
Year to date precipitation 22.14 31.57  
Snow
Snow 0.00 in 0.00 in in ()
Month to date snowfall 0.0 0.0  
Since 1 July snowfall T 0.0  
Since 1 September snowfall T 0.0  
Snow Depth 0.00 in   
Wind
Wind Speed 11 mph   
Max Wind Speed 35 mph   
Max Gust Speed 45 mph   
Visibility 8 miles   
Events Rain   

Key: T is trace of precipitation, MM is missing value
Source: NWS Daily Summary
Time(CDT)TemperatureDew PointHumidity Pressure Visibility Wind DirectionWind SpeedGust SpeedPrecipitationEvents Conditions
12:52 AM 62.1°F 60.1°F 93% 29.72 in 6.0 miles SSE 3.5 mph - 0.00 in Rain Light Rain
1:52 AM 63.0°F 62.1°F 97% 29.70 in 5.0 miles Calm Calm - 0.08 in Rain Rain
2:01 AM 62.6°F 62.6°F 100% 29.69 in 6.0 miles SSW 4.6 mph - 0.01 in Rain Light Rain
2:08 AM 62.6°F 62.6°F 100% 29.69 in 7.0 miles SSW 5.8 mph - 0.02 in Rain Light Rain
2:52 AM 63.0°F 61.0°F 93% 29.64 in 6.0 miles SE 5.8 mph - 0.08 in Rain Light Rain
3:15 AM 62.6°F 60.8°F 94% 29.62 in 7.0 miles SE 5.8 mph - 0.03 in Rain Light Rain
3:52 AM 62.1°F 61.0°F 96% 29.59 in 10.0 miles Calm Calm - 0.03 in   Overcast
4:01 AM 62.6°F 60.8°F 94% 29.57 in 10.0 miles ENE 4.6 mph - N/A   Overcast
4:42 AM 62.6°F 60.8°F 94% 29.58 in 7.0 miles Calm Calm - N/A   Overcast
4:52 AM 62.1°F 60.1°F 93% 29.57 in 6.0 miles Calm Calm - N/A   Overcast
5:09 AM 60.8°F 60.8°F 100% 29.57 in 1.8 miles Calm Calm - N/A   Overcast
5:35 AM 60.8°F 60.8°F 100% 29.56 in 1.0 miles ESE 3.5 mph - N/A   Overcast
5:45 AM 60.8°F 60.8°F 100% 29.55 in 2.0 miles Calm Calm - N/A   Overcast
5:52 AM 61.0°F 61.0°F 100% 29.55 in 6.0 miles Calm Calm - N/A   Overcast
6:44 AM 62.6°F 60.8°F 94% 29.56 in 10.0 miles SSW 8.1 mph - N/A   Mostly Cloudy
6:52 AM 62.1°F 60.1°F 93% 29.55 in 10.0 miles SSW 8.1 mph - N/A   Mostly Cloudy
7:32 AM 62.6°F 60.8°F 94% 29.55 in 10.0 miles South 10.4 mph - 0.01 in   Overcast
7:39 AM 62.6°F 60.8°F 94% 29.55 in 10.0 miles South 11.5 mph - 0.01 in   Overcast
7:48 AM 62.6°F 60.8°F 94% 29.54 in 10.0 miles South 9.2 mph 18.4 mph 0.01 in   Overcast
7:52 AM 62.1°F 60.1°F 93% 29.53 in 10.0 miles South 10.4 mph 18.4 mph 0.01 in   Overcast
8:05 AM 62.6°F 60.8°F 94% 29.53 in 4.0 miles South 11.5 mph - 0.01 in Rain Rain
8:36 AM 62.6°F 60.8°F 94% 29.52 in 9.0 miles South 11.5 mph - 0.04 in Rain Light Rain
8:43 AM 62.6°F 60.8°F 94% 29.52 in 2.5 miles South 13.8 mph 19.6 mph 0.05 in Rain Heavy Rain
8:52 AM 62.1°F 60.1°F 93% 29.51 in 3.0 miles South 10.4 mph 19.6 mph 0.14 in Rain Light Rain
9:01 AM 62.6°F 59.0°F 88% 29.51 in 2.0 miles South 11.5 mph 23.0 mph 0.02 in Rain Light Rain
9:44 AM 60.8°F 57.2°F 88% 29.50 in 2.0 miles SW 15.0 mph 29.9 mph 0.25 in Rain Heavy Rain
9:52 AM 61.0°F 57.0°F 87% 29.49 in 2.0 miles SSW 15.0 mph - 0.41 in Rain Heavy Rain
9:59 AM 60.8°F 57.2°F 88% 29.50 in 10.0 miles SW 12.7 mph 19.6 mph 0.01 in Rain Light Rain
10:52 AM 61.0°F 57.9°F 90% 29.49 in 6.0 miles SW 11.5 mph 24.2 mph 0.03 in Rain Light Rain
11:52 AM 62.1°F 57.9°F 86% 29.47 in 10.0 miles SSW 8.1 mph - 0.04 in   Clear
12:08 PM 62.6°F 57.2°F 82% 29.47 in 10.0 miles South 10.4 mph - N/A   Scattered Clouds
12:15 PM 62.6°F 57.2°F 82% 29.46 in 10.0 miles South 11.5 mph - N/A   Mostly Cloudy
12:43 PM 60.8°F 57.2°F 88% 29.45 in 10.0 miles WSW 21.9 mph 29.9 mph 0.01 in Rain Light Rain
12:52 PM 57.9°F 55.9°F 93% 29.45 in 10.0 miles WSW 17.3 mph - 0.01 in Rain Light Rain
1:25 PM 57.2°F 55.4°F 94% 29.42 in 10.0 miles West 28.8 mph 39.1 mph 0.01 in Rain Light Rain
1:34 PM 57.2°F 55.4°F 94% 29.44 in 7.0 miles WNW 27.6 mph 44.9 mph 0.01 in Rain Light Rain
1:52 PM 55.9°F 54.0°F 93% 29.47 in 7.0 miles WNW 26.5 mph 35.7 mph 0.01 in Rain Light Rain
2:52 PM 53.6°F 51.8°F 94% 29.58 in 10.0 miles WNW 23.0 mph 39.1 mph N/A Rain Light Rain
3:28 PM 53.6°F 48.2°F 82% 29.63 in 10.0 miles WNW 23.0 mph 36.8 mph 0.00 in   Overcast
3:52 PM 53.1°F 48.0°F 83% 29.65 in 10.0 miles WNW 25.3 mph 40.3 mph 0.00 in   Overcast
4:52 PM 53.1°F 48.0°F 83% 29.72 in 10.0 miles WNW 19.6 mph 27.6 mph N/A   Overcast
5:52 PM 52.0°F 46.9°F 83% 29.77 in 10.0 miles WNW 20.7 mph 31.1 mph N/A   Overcast
6:52 PM 51.1°F 45.0°F 80% 29.79 in 10.0 miles WNW 16.1 mph 26.5 mph N/A   Mostly Cloudy
7:52 PM 48.9°F 44.1°F 83% 29.82 in 10.0 miles WNW 13.8 mph - N/A   Clear
8:52 PM 48.0°F 43.0°F 83% 29.84 in 10.0 miles WNW 9.2 mph - N/A   Clear
9:52 PM 46.9°F 43.0°F 86% 29.86 in 10.0 miles WNW 10.4 mph - N/A   Clear
10:52 PM 46.0°F 42.1°F 86% 29.88 in 10.0 miles WNW 5.8 mph - N/A   Clear
11:52 PM 42.1°F 39.9°F 92% 29.88 in 10.0 miles West 4.6 mph - N/A   Clear
Astronomy
Sunrise:07:13 AM (CDT) Moon Rise:06:12 AM (CDT)10/14
Sunset:06:21 PM (CDT) Moon Set:05:41 PM (CDT)10/14
Moon Phase
Oct. 14 Oct. 15 Oct. 22 Oct. 29 Nov. 07

Copyright © 2017 The Weather Underground, Inc.















  Today is Tuesday, Nov. 22, the 327th day of 2016. There are 39 days left in the year.
1866 -- 150 years ago: Free luncheon is served at Phil Hein's Saloon every morning at 10 o'clock.
1891 -- 125 years ago: Bige Bickford was injured as he was coupling cars in the Rock Island Lines yard.
1916 -- 100 years ago: Clarence Granlund was elected president of the Lyceum at Augustana College.
1941 -- 75 years ago: Alice Schall, teacher at Grant School, supervised packing of Thanksgiving boxes for needy families.
1966 -- 50 years ago: The Rev. Lowell Campbell, pastor of the Milan Presbyterian Church, led the members of the congregation in a ground-breaking ceremony yesterday at the site of the new church one mile south of Andalusia Road on U.S. 67. The building will cost $285,000 and will be completed next fall.
1991 -- 25 years ago: Construction of a 200-room, $13.5 million hotel on the east end of the Moline civic center site will begin next spring, according to an agreement that was to be considered this morning by the Quad City Civic Center Authority.